Wind_Speed
31 31 30 30 31 32 35 38 44 50 42 36 63 62 72 70 68 49 46 46 47 43 38 38 34 41 36 28 28 34 23 32 34 37 31 23 24 35 45 27 11 12 6 7
31 30 30 30 30 32 33 39 44 43 39 44 70 56 71 61 76 69 57 56 50 47 32 34 41 38 36 27 28 29 32 24 24 23 30 29 17 33 38 34 28 31 14 5
30 30 30 30 29 30 32 31 39 40 41 50 57 71 58 60 77 76 64 62 58 45 40 38 30 29 36 35 26 28 25 25 27 25 25 31 22 22 24 28 25 26 26 25
29 29 29 28 28 28 30 36 41 41 32 43 53 74 56 66 62 76 70 69 56 56 50 46 40 35 28 31 33 30 27 22 26 25 23 23 34 23 19 22 11 23 31 25
29 28 27 27 26 27 31 38 40 45 50 41 48 63 86 70 69 68 57 64 75 59 60 56 44 42 37 34 36 35 36 24 22 21 22 20 26 31 19 18 17 17 17 22
28 28 27 27 28 30 33 39 40 41 47 51 48 51 90 58 68 77 75 78 52 45 56 52 45 28 34 39 39 35 38 32 25 19 20 18 20 31 35 19 28 22 30 34
27 26 25 27 28 31 33 37 32 39 48 39 49 56 58 57 57 68 71 57 56 61 50 40 44 34 31 36 42 37 45 34 25 16 21 8 21 21 25 31 24 19 13 11
26 25 25 27 27 29 31 33 31 39 50 50 34 45 52 51 66 65 64 64 59 45 46 37 33 36 38 35 36 35 39 38 20 18 27 14 15 20 29 31 32 30 27 27
25 25 25 26 25 26 30 32 31 34 41 54 43 36 52 54 56 64 65 56 60 45 43 43 26 16 23 21 32 29 38 40 37 21 11 9 24 17 16 21 30 24 24 28
26 25 25 24 25 25 28 32 30 37 42 47 47 33 47 53 63 59 52 63 62 63 55 38 27 23 25 19 36 39 32 36 36 25 18 14 18 20 24 27 22 27 26 25
26 26 24 25 23 22 24 28 28 32 44 42 49 24 47 46 52 58 62 57 53 55 46 34 26 24 29 23 37 42 38 29 30 32 22 16 18 23 31 33 28 14 20 22
24 24 24 25 22 23 27 28 23 21 35 45 36 18 37 49 47 64 30 73 67 45 45 30 35 20 34 34 28 37 39 43 33 33 30 10 21 23 25 24 20 19 17 19
23 24 24 23 22 24 27 30 20 18 33 34 40 16 31 33 44 49 54 52 43 56 48 42 37 29 30 36 32 38 40 40 31 31 30 27 22 20 26 25 26 22 20 22
24 23 25 23 23 24 26 26 20 20 28 27 31 27 27 35 33 40 47 40 46 44 53 38 35 36 28 35 34 33 43 36 35 35 25 22 25 23 21 24 24 22 19 19
25 23 25 22 22 24 25 26 22 19 27 17 22 27 30 27 42 40 40 35 33 47 40 42 38 36 29 27 31 35 39 41 40 36 30 28 27 25 23 23 24 23 22 23
26 23 23 22 22 22 26 25 22 19 26 23 11 28 28 26 22 29 20 37 33 41 36 46 42 39 35 31 33 28 29 33 29 33 23 23 21 22 24 26 27 25 25 27
24 23 22 23 18 22 25 20 15 16 25 29 16 24 26 28 24 25 26 12 14 41 46 35 39 52 38 33 37 42 25 24 26 23 20 25 24 26 27 27 27 28 30 31
21 22 21 22 16 22 29 29 24 17 23 29 11 10 23 29 24 18 22 24 21 28 37 41 45 40 40 30 41 27 37 32 27 28 26 24 25 25 28 29 29 29 29 29
20 19 18 21 20 23 24 24 25 27 20 9 16 21 25 26 28 29 22 22 23 18 26 22 30 37 20 32 38 39 34 37 35 27 28 29 30 28 28 28 28 28 28 30
18 18 19 20 20 20 18 15 21 28 26 20 19 35 27 26 36 29 28 24 23 11 24 23 25 35 29 18 17 25 28 27 32 34 35 33 31 30 29 27 25 27 26 25
20 20 21 16 11 11 13 11 12 11 8 14 25 35 39 37 38 33 24 14 10 8 14 15 10 18 27 26 20 22 21 23 28 29 33 36 36 36 35 30 28 27 20 19
22 19 17 18 15 10 9 7 7 9 12 15 30 29 30 38 38 25 12 11 9 5 28 20 13 19 19 28 29 31 31 28 28 31 33 33 32 32 30 27 23 19 18 18
19 15 13 7 10 10 7 9 9 9 12 28 29 32 31 33 24 18 9 8 7 18 15 12 27 22 15 13 18 22 24 27 28 27 27 31 29 27 25 22 21 21 19 18
17 13 10 7 7 7 9 16 15 13 14 31 36 31 30 32 18 9 8 12 16 8 5 20 23 28 19 11 16 21 24 29 31 30 26 22 23 25 25 26 24 22 20 17
13 10 10 16 10 11 10 14 19 17 17 31 38 31 25 26 11 8 9 11 8 10 24 27 27 21 13 13 16 18 21 23 26 28 24 26 24 23 24 24 21 19 18 18
20 11 10 17 18 9 8 17 19 22 21 37 37 20 16 18 11 12 9 13 14 25 29 27 18 11 11 16 17 16 18 22 23 24 24 23 24 23 21 18 17 18 18 18
25 33 11 14 16 11 8 22 22 32 32 45 32 15 13 12 13 17 22 29 15 3 3 9 11 9 11 17 21 21 22 23 23 23 25 24 23 20 16 15 18 17 16 16
Wind_Direction
249 250 249 247 251 255 254 254 253 252 252 232 221 225 224 232 221 226 225 227 226 227 225 219 221 231 233 239 242 243 239 246 242 249 247 252 235 235 227 222 214 224 257 270
246 248 250 250 249 251 254 255 256 249 250 241 225 227 228 229 228 222 219 221 218 220 218 220 225 234 236 243 241 241 238 229 232 244 242 244 237 220 220 228 242 234 216 254
244 246 249 252 252 254 254 255 258 254 248 248 239 227 237 231 227 229 223 223 223 226 226 222 235 241 235 234 226 222 221 226 216 221 230 234 230 220 225 229 231 225 234 239
242 244 248 249 252 252 248 240 243 247 250 248 239 230 234 230 222 226 226 229 225 222 228 229 235 235 237 231 226 223 227 232 229 235 237 239 230 228 220 224 230 234 237 242
239 242 245 247 250 251 245 239 247 250 251 263 259 236 229 234 225 211 212 220 227 225 227 230 239 231 233 237 230 228 226 237 228 224 219 225 235 233 238 221 217 230 194 201
240 242 243 245 246 248 241 243 252 254 252 260 253 243 227 235 223 216 221 222 214 217 233 230 229 233 241 246 238 219 214 220 202 206 211 220 233 228 232 252 230 252 235 243
240 243 246 246 245 245 244 245 256 248 252 258 263 251 233 228 228 211 213 217 222 233 231 235 230 230 247 242 223 225 217 212 204 215 200 221 238 251 243 246 217 216 213 207
241 243 246 250 249 246 246 247 252 247 250 254 263 258 242 239 231 228 224 224 234 224 222 218 220 229 226 215 209 212 212 206 203 207 205 244 245 231 208 214 222 232 238 237
241 242 246 251 250 247 248 243 253 249 267 253 248 268 247 238 227 218 230 226 216 211 213 203 199 198 184 178 204 210 205 215 213 206 203 215 231 205 217 218 229 228 224 233
243 244 244 250 253 254 250 247 241 252 270 256 251 258 243 233 229 224 221 219 219 216 213 217 203 207 191 184 187 192 200 206 208 208 218 237 220 214 210 208 230 221 229 231
247 246 247 247 257 262 239 244 253 253 261 273 240 271 227 222 214 214 220 208 204 199 204 206 191 213 196 193 199 191 192 188 202 209 216 242 236 210 211 230 236 230 208 216
249 248 245 249 254 250 233 240 253 255 266 261 249 256 233 216 214 206 209 208 209 212 197 204 195 196 192 196 193 204 201 204 196 212 218 236 227 224 209 216 225 218 214 219
250 253 246 248 254 236 236 243 239 258 268 278 266 234 233 223 218 203 199 203 197 200 214 206 200 210 193 191 199 198 206 216 216 220 224 227 230 212 219 224 227 229 238 240
248 250 247 246 252 238 237 233 229 246 254 263 257 250 242 209 214 218 202 206 190 197 208 199 198 208 207 204 202 208 212 208 214 221 224 221 215 214 218 219 221 230 233 234
244 246 247 248 249 238 240 237 227 234 244 259 250 237 226 208 204 204 215 218 210 214 216 201 199 199 198 200 208 221 224 229 228 227 235 225 210 200 209 217 220 226 235 240
239 241 241 246 232 237 245 247 243 242 246 256 245 226 221 198 217 237 246 210 221 219 222 207 201 198 196 198 207 215 230 235 237 225 220 211 212 207 207 212 220 229 239 247
231 235 236 232 223 230 231 232 219 228 240 230 244 190 195 186 190 207 228 204 198 216 220 222 217 215 209 214 223 223 213 219 211 210 205 202 209 210 211 218 229 236 245 253
223 229 239 236 237 234 229 230 220 227 233 224 230 160 190 209 217 218 240 247 227 198 191 209 218 220 225 226 219 195 205 205 195 197 203 212 213 221 226 231 237 246 252 257
219 223 236 238 250 241 235 234 236 211 234 228 189 182 166 189 193 203 211 195 197 200 204 200 210 196 200 211 206 201 195 206 209 212 222 227 227 232 232 236 241 250 255 258
216 216 229 241 254 246 242 245 237 232 241 242 203 204 194 198 206 192 202 214 204 174 181 183 202 215 206 192 193 205 211 209 218 217 222 224 226 233 239 245 255 256 255 264
208 216 225 228 239 240 225 217 206 211 215 219 187 197 198 196 192 187 186 172 176 158 172 179 189 215 203 203 201 192 204 216 221 227 231 234 238 240 241 245 251 257 251 245
208 224 236 237 240 219 213 206 186 194 208 192 180 178 191 180 183 181 173 159 150 162 172 179 204 198 192 193 194 201 202 215 223 226 228 228 231 236 240 246 244 245 243 224
208 218 222 249 230 236 199 191 175 180 190 184 174 172 181 175 169 167 150 143 165 150 170 193 185 173 181 198 210 204 213 227 233 233 230 231 233 235 237 239 240 236 223 227
204 205 219 229 229 229 191 186 181 180 203 188 182 186 177 181 179 134 128 138 139 156 198 212 199 217 257 239 209 214 225 229 230 228 223 226 226 228 229 230 218 216 223 237
200 198 213 220 231 221 202 187 168 176 182 184 175 171 183 168 166 129 136 156 177 208 234 245 244 242 226 206 210 223 217 221 223 225 225 224 221 213 204 202 209 222 239 255
211 233 215 206 215 243 223 185 165 164 179 183 171 162 162 160 163 176 169 176 200 220 223 230 247 253 239 219 231 208 195 194 203 212 209 203 193 197 205 212 228 243 254 267
219 224 226 228 223 244 220 182 168 169 179 184 178 173 176 162 187 189 202 208 207 101 327 246 218 177 193 185 184 190 179 178 189 199 184 185 193 206 223 236 247 258 269 279
Height
3027 3030 3034 3038 3039 3040 3043 3046 3047 3052 3062 3070 3064 3060 3069 3082 3088 3092 3100 3100 3101 3102 3101 3101 3102 3104 3108 3112 3117 3117 3118 3117 3115 3116 3120 3122 3120 3120 3123 3125 3129 3128 3128 3126
3017 3020 3024 3027 3031 3033 3036 3035 3036 3045 3051 3045 3046 3050 3058 3061 3071 3076 3084 3087 3088 3092 3094 3097 3095 3096 3103 3105 3109 3110 3111 3107 3110 3111 3115 3115 3114 3115 3115 3119 3122 3120 3124 3125
3008 3011 3014 3018 3022 3025 3027 3029 3026 3031 3031 3032 3035 3041 3042 3050 3055 3062 3072 3078 3080 3084 3084 3089 3088 3090 3096 3100 3104 3105 3105 3102 3102 3103 3105 3109 3110 3111 3110 3112 3113 3115 3114 3119
2999 3002 3006 3009 3013 3017 3018 3018 3016 3020 3016 3016 3022 3029 3031 3034 3036 3046 3058 3064 3066 3072 3074 3081 3082 3085 3090 3092 3097 3098 3099 3097 3099 3099 3101 3102 3103 3106 3105 3105 3106 3108 3109 3111
2991 2995 2998 3000 3005 3007 3007 3006 3008 3013 3007 3011 3005 3009 3008 3015 3024 3029 3032 3039 3050 3063 3066 3069 3074 3080 3083 3086 3088 3090 3092 3093 3094 3094 3095 3096 3096 3098 3099 3099 3103 3106 3105 3108
2983 2986 2990 2993 2996 2997 2996 2997 3001 3001 2996 2997 2997 2991 2993 3003 3013 3017 3021 3028 3048 3052 3053 3064 3071 3075 3078 3081 3082 3082 3085 3087 3089 3090 3090 3091 3089 3090 3092 3094 3096 3102 3100 3102
2974 2978 2981 2984 2986 2987 2988 2990 2993 2990 2983 2985 2981 2982 2995 2990 2997 3006 3015 3027 3034 3038 3056 3065 3066 3066 3068 3070 3071 3074 3075 3080 3084 3085 3086 3084 3080 3085 3089 3091 3095 3097 3098 3101
2967 2970 2973 2975 2977 2979 2979 2981 2982 2979 2975 2975 2970 2975 2981 2989 2994 3000 3007 3016 3018 3037 3050 3051 3055 3055 3058 3054 3058 3060 3067 3072 3075 3076 3077 3075 3075 3078 3079 3080 3084 3090 3091 3095
2959 2962 2964 2966 2968 2971 2970 2971 2972 2971 2968 2957 2967 2966 2970 2971 2979 2990 2994 3008 3020 3028 3028 3034 3031 3032 3032 3040 3051 3053 3059 3065 3069 3068 3069 3068 3070 3074 3077 3080 3081 3083 3084 3088
2951 2954 2956 2959 2960 2962 2962 2961 2964 2963 2954 2949 2960 2954 2955 2966 2973 2980 2985 2993 3000 3009 3013 3013 3013 3022 3026 3029 3034 3042 3048 3054 3057 3060 3062 3059 3062 3068 3075 3076 3076 3077 3080 3082
2944 2946 2949 2951 2952 2952 2953 2953 2955 2955 2946 2941 2946 2942 2948 2952 2955 2964 2972 2985 2983 2990 2995 3002 3004 3013 3014 3021 3027 3028 3035 3044 3049 3054 3055 3057 3059 3062 3064 3067 3070 3072 3074 3077
2936 2939 2942 2943 2944 2944 2946 2946 2949 2948 2942 2933 2935 2931 2937 2944 2946 2958 2960 2966 2974 2978 2988 2992 2999 3007 3004 3010 3019 3025 3031 3031 3038 3045 3044 3048 3050 3054 3060 3064 3067 3068 3071 3075
2929 2931 2934 2936 2937 2937 2939 2939 2941 2941 2937 2930 2926 2925 2927 2934 2941 2945 2951 2959 2963 2972 2979 2985 2992 2998 3000 3002 3010 3017 3024 3029 3033 3037 3038 3043 3049 3051 3055 3060 3063 3064 3066 3069
2922 2924 2925 2928 2929 2929 2932 2932 2935 2934 2935 2927 2920 2923 2922 2929 2932 2939 2945 2949 2958 2968 2976 2981 2981 2993 2994 2999 3004 3009 3015 3020 3023 3028 3031 3038 3042 3045 3049 3053 3057 3060 3062 3063
2914 2917 2918 2920 2920 2922 2924 2925 2928 2928 2929 2921 2920 2918 2921 2921 2928 2935 2940 2945 2953 2963 2969 2972 2978 2985 2989 2994 3001 3004 3008 3012 3015 3017 3025 3031 3035 3040 3043 3047 3051 3053 3056 3060
2906 2909 2911 2913 2915 2917 2917 2919 2921 2922 2921 2918 2915 2914 2916 2916 2924 2930 2934 2939 2947 2956 2960 2963 2967 2975 2983 2988 2991 2997 3001 3006 3013 3016 3022 3028 3032 3036 3039 3043 3046 3048 3051 3054
2899 2902 2905 2907 2908 2909 2910 2912 2916 2915 2917 2918 2915 2909 2915 2917 2922 2928 2931 2931 2936 2945 2952 2953 2962 2971 2974 2978 2982 2990 2996 3002 3008 3014 3017 3024 3028 3031 3035 3038 3040 3042 3045 3047
2894 2896 2899 2900 2901 2902 2903 2905 2907 2907 2909 2912 2906 2901 2908 2915 2918 2924 2928 2934 2939 2939 2943 2950 2958 2964 2967 2970 2981 2986 2992 2998 3003 3009 3014 3020 3024 3027 3030 3033 3035 3037 3038 3042
2889 2892 2893 2893 2893 2893 2897 2900 2900 2900 2902 2898 2897 2900 2906 2909 2916 2924 2931 2933 2938 2940 2942 2946 2954 2956 2959 2965 2971 2978 2985 2991 2998 3004 3007 3012 3016 3020 3024 3028 3030 3033 3036 3037
2885 2888 2888 2888 2890 2891 2892 2895 2893 2892 2892 2893 2891 2894 2901 2906 2917 2926 2933 2933 2935 2937 2943 2946 2950 2952 2959 2966 2971 2977 2981 2988 2994 2998 3001 3004 3008 3012 3016 3020 3024 3028 3028 3028
2879 2881 2882 2886 2886 2886 2887 2885 2886 2885 2886 2885 2884 2888 2895 2906 2916 2921 2928 2930 2932 2935 2938 2942 2946 2950 2957 2964 2970 2976 2980 2985 2990 2995 3000 3003 3006 3009 3012 3016 3019 3023 3022 3020
2876 2879 2881 2882 2883 2881 2879 2875 2875 2878 2881 2880 2882 2888 2897 2906 2911 2922 2927 2928 2930 2932 2938 2944 2946 2948 2953 2954 2959 2965 2971 2978 2982 2987 2993 2997 3001 3004 3008 3011 3013 3016 3015 3018
2875 2878 2879 2878 2875 2871 2870 2869 2873 2873 2873 2878 2885 2889 2897 2905 2911 2916 2920 2923 2928 2933 2935 2932 2936 2943 2948 2953 2958 2963 2967 2971 2976 2984 2988 2992 2996 2999 3002 3004 3007 3008 3009 3012
2873 2874 2874 2872 2868 2866 2867 2870 2871 2872 2876 2879 2885 2889 2895 2901 2906 2910 2916 2923 2927 2930 2931 2927 2934 2940 2944 2949 2953 2958 2961 2963 2967 2975 2981 2988 2992 2994 2995 2998 3000 3002 3005 3007
2867 2870 2867 2866 2867 2866 2865 2867 2869 2873 2877 2880 2884 2889 2894 2899 2905 2909 2914 2921 2921 2923 2923 2926 2928 2934 2942 2945 2948 2952 2955 2959 2963 2969 2976 2981 2986 2988 2991 2993 2995 2998 2999 3000
2863 2862 2860 2861 2863 2864 2864 2866 2867 2871 2876 2881 2881 2886 2892 2897 2903 2907 2911 2918 2916 2914 2915 2921 2927 2931 2936 2941 2943 2946 2950 2954 2959 2966 2971 2977 2981 2986 2988 2989 2990 2992 2993 2994
2856 2855 2858 2860 2861 2862 2862 2865 2867 2870 2876 2877 2880 2886 2891 2894 2902 2903 2902 2903 2908 2914 2916 2918 2920 2924 2929 2936 2940 2942 2945 2950 2958 2964 2969 2973 2977 2981 2984 2985 2985 2986 2986 2986